Regional Weather Roundup
Issued by NWS Little Rock, AR

Home | Current Version | Previous Version | Graphics & Text | Print | Product List | Glossary On
Versions: 1 2 3 4 5 6 7 8 9 10 11 12 13 14 15 16 17 18 19 20 21 22 23 24 25 26 27 28 29 30 31 32 33 34 35 36 37 38 39 40 41 42 43 44 45 46 47 48 49 50
000
ASUS44 KLZK 311905
RWRLZK

WEATHER ROUNDUP FOR ARKANSAS
NATIONAL WEATHER SERVICE LITTLE ROCK AR
200 PM CDT THU JUL 31 2014

NOTE: "FAIR" INDICATES FEW OR NO CLOUDS BELOW 12,000 FEET WITH NO
SIGNIFICANT WEATHER AND/OR OBSTRUCTIONS TO VISIBILITY.

ARZ001-003-010-029-312000-
NORTHWEST ARKANSAS

CITY           SKY/WX    TMP DP  RH WIND       PRES   REMARKS
FAYETTEVILLE   CLOUDY    68  64  87 S3        30.11S
FORT SMITH     CLOUDY    73  64  73 E8        30.07F
HARRISON       CLOUDY    68  67  96 SE7       30.12S FOG
BENTONVILLE    CLOUDY    68  63  83 N3        30.12S
ROGERS         LGT RAIN  68  66  93 CALM      30.12S
SILOAM SPGS    CLOUDY    66  61  82 S6        30.12S
HIGHFILL       CLOUDY    70  68  93 N7        30.10F FOG
SPRINGDALE     CLOUDY    68  66  94 S7        30.13S
$$

ARZ004-005-016-312000-
NORTH CENTRAL ARKANSAS

CITY           SKY/WX    TMP DP  RH WIND       PRES   REMARKS
BATESVILLE     CLOUDY    73  66  78 W6        30.10F
FLIPPIN        CLOUDY    68  64  88 SW3       30.12S
MTN HOME       CLOUDY    68  65  90 SW5       30.11S
$$

ARZ040-041-312000-
WEST CENTRAL ARKANSAS

CITY           SKY/WX    TMP DP  RH WIND       PRES   REMARKS
MENA           CLOUDY    70  68  94 E6        30.07F
MOUNT IDA      CLOUDY    68  65  90 SE3       30.06F
$$

ARZ009-017-025-026-028-312000-
NORTHEAST ARKANSAS

CITY           SKY/WX    TMP DP  RH WIND       PRES   REMARKS
CORNING        MOCLDY    73  66  78 CALM      30.11F
JONESBORO      CLOUDY    72  66  81 CALM      30.11S
NEWPORT        CLOUDY    75  67  76 SW5       30.11F
WALNUT RIDGE   CLOUDY    72  64  78 SW6       30.10S
BLYTHEVILLE    CLOUDY    75  68  78 N6        30.11F
$$

ARZ022-023-033-042-044-312000-
CENTRAL ARKANSAS

CITY           SKY/WX    TMP DP  RH WIND       PRES   REMARKS
LITTLE ROCK    CLOUDY    74  65  73 E3        30.09F
N LITTLE ROCK  CLOUDY    73  67  82 E6        30.09F
JACKSONVILLE   CLOUDY    73  67  82 E6        30.09F
SEARCY         CLOUDY    71  67  87 CALM      30.11F
HOT SPRINGS    CLOUDY    72  65  78 SE5       30.09F
RUSSELLVILLE   CLOUDY    73  66  78 VRB5      30.09F
CLINTON        CLOUDY    70  68  94 CALM      30.11F
$$

ARZ036-312000-
EAST ARKANSAS

CITY           SKY/WX    TMP DP  RH WIND       PRES   REMARKS
WEST MEMPHIS   CLOUDY    75  67  76 NW6       30.09F
$$

ARZ050-053-066-070-073-312000-
SOUTHWEST ARKANSAS

CITY           SKY/WX    TMP DP  RH WIND       PRES   REMARKS
ARKADELPHIA    RAIN      70  67  90 CALM      30.09F FOG
CAMDEN         LGT RAIN  72  68  88 E5        30.07F
TEXARKANA      CLOUDY    70  70 100 NE5       30.04F
EL DORADO      CLOUDY    75  66  73 E7        30.06F
DE QUEEN       CLOUDY    68  65  90 E12       30.03F
$$

ARZ056-057-069-312000-
SOUTHEAST ARKANSAS

CITY           SKY/WX    TMP DP  RH WIND       PRES   REMARKS
PINE BLUFF     CLOUDY    75  66  73 E5        30.08F
STUTTGART      CLOUDY    72  64  78 NE6       30.10F
MONTICELLO     CLOUDY    78  64  61 VRB3      30.07F

$$





USA.gov is the U.S. government's official web portal to all federal, state and local government web resources and services.